FW8528 Weather Reports


time (UTC)temp
C
wind
direction
speed
KPH
gust
KPH
rain 1hr
cm
rain 24hr
cm
rain mn
cm
humidity
%
barometer
mb
20260506222608 15 235 0.0 1.6 0.00 0.03 0.03 79 1019.3
20260506222104 15 259 0.0 0.0 0.00 0.03 0.03 81 1019.3
20260506221602 15 230 1.6 1.6 0.00 0.03 0.03 77 1018.9
20260506221100 15 242 0.0 0.0 0.00 0.03 0.03 79 1018.9
20260506220555 15 141 3.2 3.2 0.00 0.03 0.03 78 1018.9
20260506220051 15 227 0.0 0.0 0.00 0.03 0.03 77 1019.3
20260506215548 15 260 0.0 1.6 0.00 0.03 0.03 77 1019.3
20260506215044 15 238 0.0 0.0 0.00 0.03 0.03 78 1019.3
20260506214541 15 243 0.0 1.6 0.00 0.03 0.03 79 1019.3
20260506214038 15 175 4.8 4.8 0.00 0.03 0.03 79 1019.3
20260506213536 15 333 1.6 1.6 0.00 0.03 0.03 77 1019.3
20260506213033 15 183 1.6 1.6 0.00 0.03 0.03 77 1019.6
20260506212530 15 216 1.6 1.6 0.00 0.03 0.03 76 1019.3
20260506212025 15 196 4.8 4.8 0.00 0.03 0.03 78 1019.3
20260506211521 15 115 3.2 3.2 0.00 0.03 0.03 79 1019.3
20260506211018 15 211 3.2 3.2 0.00 0.03 0.03 76 1018.9
20260506210515 15 252 0.0 1.6 0.00 0.03 0.03 76 1019.3
20260506210011 15 213 1.6 3.2 0.00 0.03 0.03 78 1019.3
20260506205508 15 227 0.0 0.0 0.00 0.03 0.03 78 1019.3
20260506205003 15 216 0.0 1.6 0.00 0.03 0.03 79 1018.9
20260506204501 15 238 0.0 1.6 0.00 0.03 0.03 80 1018.9
20260506203953 15 92 8.0 9.7 0.00 0.03 0.03 80 1018.9
20260506203450 15 221 1.6 1.6 0.00 0.03 0.03 85 1018.9
20260506202947 14 127 4.8 4.8 0.00 0.03 0.03 85 1019.3
20260506202444 15 145 3.2 4.8 0.00 0.03 0.03 85 1018.9
20260506201940 14 204 0.0 0.0 0.00 0.03 0.03 84 1019.3
20260506201438 15 255 3.2 3.2 0.00 0.03 0.03 84 1018.9
20260506200934 14 207 0.0 0.0 0.00 0.03 0.03 83 1018.9
20260506200431 14 127 3.2 4.8 0.00 0.03 0.03 80 1018.9
20260506195927 14 202 3.2 3.2 0.00 0.03 0.03 81 1018.9
20260506195424 15 206 1.6 1.6 0.00 0.03 0.03 80 1018.9
20260506194921 15 254 0.0 0.0 0.00 0.03 0.03 78 1018.9
20260506194418 15 251 0.0 0.0 0.00 0.03 0.03 80 1018.9
20260506193915 15 156 1.6 1.6 0.00 0.03 0.03 79 1018.9
20260506193412 15 221 0.0 1.6 0.00 0.03 0.03 78 1018.9
20260506192908 14 303 1.6 1.6 0.00 0.03 0.03 83 1018.9
20260506192406 14 252 0.0 0.0 0.00 0.03 0.03 83 1019.3
20260506191902 14 155 4.8 8.0 0.00 0.03 0.03 81 1018.9
20260506191359 14 199 1.6 1.6 0.00 0.03 0.03 81 1018.9
20260506190856 14 314 0.0 1.6 0.00 0.03 0.03 82 1018.6
20260506190352 13 301 0.0 1.6 0.00 0.03 0.03 83 1018.9
20260506185849 14 210 1.6 4.8 0.00 0.03 0.03 82 1018.9
20260506185346 14 245 4.8 8.0 0.00 0.03 0.03 81 1018.6
20260506184843 13 229 0.0 0.0 0.00 0.03 0.03 84 1018.9
20260506184340 13 205 1.6 1.6 0.00 0.03 0.03 82 1018.6
20260506183837 13 219 1.6 1.6 0.00 0.03 0.03 84 1018.6
20260506183333 13 277 0.0 0.0 0.00 0.03 0.03 89 1018.9
20260506182830 13 148 4.8 4.8 0.00 0.03 0.03 85 1018.6
20260506182327 13 317 1.6 1.6 0.00 0.03 0.03 89 1018.9
20260506181825 12 178 3.2 3.2 0.00 0.03 0.03 87 1018.9
20260506181322 12 278 0.0 0.0 0.00 0.03 0.03 91 1018.9
20260506180819 12 213 1.6 1.6 0.00 0.03 0.03 90 1018.9
20260506180315 12 238 0.0 0.0 0.00 0.03 0.03 93 1018.9
20260506175812 12 299 0.0 1.6 0.00 0.03 0.03 93 1018.9
20260506175309 12 198 0.0 1.6 0.00 0.03 0.03 93 1018.9
20260506174806 12 259 0.0 0.0 0.00 0.03 0.03 93 1018.9
20260506174303 11 279 1.6 1.6 0.00 0.03 0.03 91 1018.9
20260506173801 11 242 0.0 0.0 0.00 0.03 0.03 95 1018.6
20260506173257 11 314 1.6 1.6 0.00 0.03 0.03 95 1018.9
20260506172754 11 84 1.6 1.6 0.00 0.03 0.03 96 1018.9
20260506172251 11 139 4.8 8.0 0.00 0.03 0.03 96 1018.9
20260506171748 11 297 0.0 0.0 0.00 0.03 0.03 99 1018.6
20260506171245 11 275 0.0 0.0 0.00 0.03 0.03 99 1018.6
20260506170743 11 264 0.0 0.0 0.00 0.03 0.03 99 1018.6
20260506170239 11 283 0.0 0.0 0.00 0.03 0.03 99 1018.6
20260506165738 11 263 0.0 0.0 0.00 0.03 0.03 99 1018.6
20260506165235 11 296 0.0 0.0 0.00 0.03 0.03 99 1018.6
20260506164732 10 242 0.0 0.0 0.00 0.03 0.03 99 1018.6
20260506164229 10 226 0.0 0.0 0.00 0.03 0.03 99 1018.6
20260506163726 10 290 0.0 0.0 0.00 0.03 0.03 99 1018.6
20260506163220 10 245 0.0 0.0 0.00 0.03 0.03 99 1018.9
20260506162717 10 298 0.0 0.0 0.00 0.03 0.03 99 1018.6
20260506162214 10 282 0.0 0.0 0.00 0.03 0.03 99 1018.6
20260506161712 10 219 0.0 1.6 0.00 0.03 0.03 99 1018.6
20260506161209 10 215 0.0 1.6 0.00 0.03 0.03 99 1018.9
20260506160706 10 246 0.0 0.0 0.00 0.03 0.03 99 1018.9
20260506160202 10 296 0.0 0.0 0.00 0.03 0.03 99 1018.6
20260506155701 10 281 0.0 0.0 0.00 0.03 0.03 99 1018.6
20260506155158 10 250 0.0 0.0 0.00 0.03 0.03 99 1018.6
20260506153300 10 279 0.0 0.0 0.00 0.03 0.03 99 1018.6
20260506152756 10 244 0.0 0.0 0.00 0.03 0.03 99 1018.6
20260506152254 10 250 0.0 0.0 0.00 0.03 0.03 99 1018.6
20260506151753 10 237 0.0 0.0 0.00 0.03 0.03 99 1018.6
20260506151249 10 219 0.0 0.0 0.00 0.03 0.03 99 1018.6
20260506150745 10 198 0.0 1.6 0.00 0.03 0.03 99 1018.2
20260506150243 10 221 1.6 1.6 0.00 0.03 0.03 99 1018.6
20260506145740 10 252 0.0 0.0 0.13 0.03 0.03 99 1018.6
20260506145236 10 241 0.0 0.0 0.00 0.00 0.00 99 1018.6
20260506144734 10 238 0.0 0.0 0.00 0.00 0.00 99 1018.6
20260506144231 10 221 0.0 0.0 0.00 0.00 0.00 99 1018.6
20260506143728 10 225 0.0 0.0 0.00 0.00 0.00 99 1018.6
20260506143225 10 260 0.0 0.0 0.00 0.00 0.00 99 1018.6
20260506142724 10 199 1.6 1.6 0.00 0.00 0.00 99 1018.6
20260506142221 10 199 1.6 3.2 0.00 0.00 0.00 99 1018.2
20260506141719 10 237 0.0 0.0 0.00 0.00 0.00 99 1018.6
20260506141217 10 227 0.0 0.0 0.00 0.00 0.00 99 1018.2
20260506140715 10 229 0.0 0.0 0.00 0.00 0.00 99 1018.2
20260506140212 10 258 0.0 0.0 0.00 0.00 0.00 99 1018.6
20260506135708 10 276 0.0 0.0 0.00 0.00 0.00 99 1018.2
20260506135204 10 267 0.0 0.0 0.00 0.00 0.00 99 1018.2
20260506134701 10 225 0.0 0.0 0.00 0.00 0.00 99 1017.9
20260506134157 10 231 0.0 0.0 0.00 0.00 0.00 99 1018.2
20260506133655 10 237 0.0 0.0 0.00 0.00 0.00 99 1017.9
20260506133151 10 238 0.0 0.0 0.00 0.00 0.00 99 1017.9
20260506132649 10 232 0.0 0.0 0.00 0.00 0.00 99 1017.9
20260506132145 10 225 0.0 0.0 0.00 0.00 0.00 99 1017.9
20260506131643 10 234 0.0 0.0 0.00 0.00 0.00 99 1018.2
20260506131139 10 217 0.0 1.6 0.00 0.00 0.00 99 1017.9
20260506130636 10 208 0.0 1.6 0.00 0.00 0.00 99 1017.9
20260506130134 10 235 0.0 0.0 0.00 0.00 0.00 99 1017.9
20260506125632 10 223 0.0 0.0 0.00 0.00 0.00 99 1017.9
20260506125129 10 251 0.0 0.0 0.00 0.00 0.00 99 1017.9
20260506124627 10 248 0.0 0.0 0.00 0.00 0.00 99 1017.9
20260506124124 10 151 1.6 3.2 0.00 0.00 0.00 99 1017.9
20260506123622 10 228 0.0 0.0 0.00 0.00 0.00 99 1017.6
20260506123120 10 232 0.0 0.0 0.00 0.00 0.00 99 1017.6
20260506122617 10 186 0.0 0.0 0.00 0.00 0.00 99 1017.6
20260506122115 10 203 0.0 0.0 0.00 0.00 0.00 99 1017.6
20260506121612 10 204 0.0 1.6 0.00 0.00 0.00 99 1017.6
20260506121108 10 246 0.0 0.0 0.00 0.00 0.00 99 1017.6
20260506120606 10 233 0.0 0.0 0.00 0.00 0.00 99 1017.6
20260506120103 10 217 0.0 0.0 0.00 0.00 0.00 99 1017.6
20260506115602 10 203 1.6 1.6 0.00 0.00 0.00 99 1017.6
20260506115059 10 208 0.0 0.0 0.00 0.00 0.00 99 1017.6
20260506114556 10 231 0.0 0.0 0.00 0.00 0.00 99 1017.6
20260506114055 10 192 0.0 1.6 0.00 0.00 0.00 99 1017.2
20260506113552 10 213 0.0 0.0 0.00 0.00 0.00 99 1017.6
20260506113049 10 171 1.6 1.6 0.00 0.00 0.00 99 1017.6
20260506112546 10 223 0.0 0.0 0.00 0.00 0.00 99 1017.2
20260506112043 10 213 0.0 1.6 0.00 0.00 0.00 99 1017.2
20260506111541 10 230 0.0 0.0 0.00 0.00 0.00 99 1017.2
20260506111038 10 219 0.0 0.0 0.00 0.00 0.00 99 1017.2
20260506110536 10 241 0.0 0.0 0.00 0.00 0.00 99 1016.9
20260506110033 10 223 0.0 0.0 0.00 0.00 0.00 99 1017.2
20260506105529 10 224 0.0 0.0 0.00 0.00 0.00 99 1016.9
20260506105026 10 224 0.0 0.0 0.00 0.00 0.00 99 1016.9
20260506104524 10 215 0.0 0.0 0.00 0.00 0.00 99 1017.2
20260506104022 10 202 0.0 1.6 0.00 0.00 0.00 99 1016.9
20260506103519 10 192 0.0 1.6 0.00 0.00 0.00 99 1016.9
20260506103015 10 224 0.0 0.0 0.00 0.00 0.00 99 1017.2
20260506102514 10 224 0.0 0.0 0.00 0.00 0.00 99 1017.2
20260506102011 10 218 0.0 0.0 0.00 0.00 0.00 99 1016.9
20260506101507 10 206 1.6 1.6 0.00 0.00 0.00 99 1016.9
20260506101004 10 211 1.6 1.6 0.00 0.00 0.00 99 1016.9
20260506100503 10 222 0.0 0.0 0.00 0.00 0.00 99 1016.9
20260506100001 10 224 1.6 1.6 0.00 0.00 0.00 99 1016.9
20260506095459 10 206 0.0 0.0 0.00 0.00 0.00 99 1016.9
20260506094955 10 208 0.0 0.0 0.00 0.00 0.00 99 1016.9
20260506094453 9 208 0.0 0.0 0.00 0.00 0.00 99 1016.9
20260506093950 9 208 0.0 0.0 0.00 0.00 0.00 99 1016.9
20260506093449 9 208 0.0 0.0 0.00 0.00 0.00 99 1016.9
20260506092946 9 208 0.0 0.0 0.00 0.00 0.00 99 1016.9
20260506092444 9 209 0.0 0.0 0.00 0.00 0.00 99 1016.9
20260506091940 8 209 0.0 0.0 0.00 0.00 0.00 99 1016.6
20260506091438 8 209 0.0 0.0 0.00 0.00 0.00 99 1016.9
20260506090935 8 208 0.0 0.0 0.00 0.00 0.00 99 1016.9
20260506090433 8 208 0.0 0.0 0.00 0.00 0.00 99 1016.6
20260506085929 8 208 0.0 0.0 0.00 0.00 0.00 99 1016.9
20260506085426 8 208 0.0 0.0 0.00 0.00 0.00 99 1016.9
20260506084922 8 208 0.0 0.0 0.00 0.00 0.00 99 1016.6
20260506084420 8 208 0.0 0.0 0.00 0.00 0.00 99 1016.6
20260506083915 8 208 0.0 0.0 0.00 0.00 0.00 99 1016.9
20260506083413 8 208 0.0 0.0 0.00 0.00 0.00 99 1016.6
20260506082910 8 208 0.0 0.0 0.00 0.00 0.00 99 1016.6
20260506082408 8 208 0.0 0.0 0.00 0.00 0.00 99 1016.6
20260506081903 8 208 0.0 0.0 0.00 0.00 0.00 99 1016.2
20260506081402 8 208 0.0 0.0 0.00 0.00 0.00 99 1016.6
20260506080858 8 208 0.0 0.0 0.00 0.00 0.00 99 1016.6
20260506080355 9 208 0.0 0.0 0.00 0.00 0.00 99 1016.6
20260506073339 9 208 0.0 0.0 0.00 0.00 0.00 99 1016.2
20260506072836 10 208 0.0 0.0 0.00 0.00 0.00 99 1016.2
20260506072334 10 208 0.0 0.0 0.00 0.00 0.00 99 1016.2
20260506071831 10 208 0.0 0.0 0.00 0.00 0.00 99 1016.2
20260506071329 10 208 0.0 0.0 0.00 0.00 0.00 99 1016.2
20260506070826 10 208 0.0 0.0 0.00 0.00 0.00 99 1016.2
20260506070323 10 208 0.0 0.0 0.00 0.00 0.00 99 1016.2
20260506062300 10 212 0.0 0.0 0.00 0.00 0.00 99 1015.4
20260506061756 10 212 0.0 0.0 0.00 0.00 0.00 99 1015.4
20260506061253 10 212 0.0 0.0 0.00 0.00 0.00 99 1015.8
20260506060751 10 211 0.0 0.0 0.00 0.00 0.00 98 1015.4
20260506060249 10 209 0.0 0.0 0.00 0.00 0.00 98 1015.8
20260506051220 11 216 0.0 0.0 0.00 0.00 0.00 96 1015.4
20260506050719 11 216 0.0 0.0 0.00 0.00 0.00 95 1015.4
20260506050215 12 216 0.0 0.0 0.00 0.00 0.00 95 1015.4
20260506044706 12 216 0.0 0.0 0.00 0.00 0.00 94 1015.1
20260506044203 12 218 0.0 0.0 0.00 0.00 0.00 95 1015.1
20260506043700 12 218 0.0 0.0 0.00 0.00 0.00 95 1015.1
20260506043158 12 217 0.0 0.0 0.00 0.00 0.00 95 1015.4
20260506042657 12 218 0.0 0.0 0.00 0.00 0.00 94 1015.1
20260506042155 12 218 0.0 0.0 0.00 0.00 0.00 93 1015.4
20260506041653 13 218 0.0 0.0 0.00 0.00 0.00 94 1015.1
20260506041149 13 218 0.0 0.0 0.00 0.00 0.00 94 1015.1
20260506040647 13 218 0.0 0.0 0.00 0.00 0.00 93 1015.1
20260506040144 13 250 0.0 0.0 0.00 0.00 0.00 92 1014.8
20260506035641 13 250 0.0 0.0 0.00 0.00 0.00 91 1015.1
20260506035137 13 250 0.0 0.0 0.00 0.00 0.00 91 1014.8
20260506034635 13 250 0.0 0.0 0.00 0.00 0.00 90 1014.8
20260506034132 14 250 0.0 0.0 0.00 0.00 0.00 91 1014.4
20260506033629 14 254 0.0 0.0 0.00 0.00 0.00 90 1014.4
20260506033126 14 261 0.0 0.0 0.00 0.00 0.00 90 1014.8
20260506032623 15 261 0.0 0.0 0.00 0.00 0.00 91 1014.4
20260506032120 15 261 0.0 0.0 0.00 0.00 0.00 89 1014.4
20260506031617 15 261 0.0 0.0 0.00 0.00 0.00 91 1014.8
20260506031114 15 262 0.0 0.0 0.00 0.00 0.00 86 1014.4
20260506030612 15 261 0.0 0.0 0.00 0.00 0.00 89 1014.8
20260506030109 15 261 0.0 0.0 0.00 0.00 0.00 90 1014.4
20260506025606 15 261 0.0 0.0 0.00 0.00 0.00 87 1014.4
20260506025102 16 262 0.0 0.0 0.00 0.00 0.00 89 1014.4
20260506024600 16 282 0.0 0.0 0.00 0.00 0.00 83 1014.4
20260506024056 16 262 0.0 0.0 0.00 0.00 0.00 84 1014.4
20260506023551 16 243 0.0 0.0 0.00 0.00 0.00 85 1014.4
20260506023049 16 238 0.0 0.0 0.00 0.00 0.00 82 1014.1
20260506022547 17 239 0.0 0.0 0.00 0.00 0.00 80 1014.4
20260506022044 17 217 0.0 0.0 0.00 0.00 0.00 78 1014.4
20260506021542 17 224 0.0 0.0 0.00 0.00 0.00 79 1014.1
20260506021039 17 297 1.6 1.6 0.00 0.00 0.00 76 1014.4
20260506020536 17 206 1.6 1.6 0.00 0.00 0.00 75 1014.4
20260506020033 17 240 0.0 0.0 0.00 0.00 0.00 78 1014.1
20260506015531 18 262 0.0 0.0 0.00 0.00 0.00 74 1014.1
20260506015027 18 217 0.0 0.0 0.00 0.00 0.00 77 1013.7
20260506014525 18 182 3.2 3.2 0.00 0.00 0.00 74 1014.4
20260506014021 18 195 1.6 1.6 0.00 0.00 0.00 72 1014.1
20260506013519 19 231 0.0 0.0 0.00 0.00 0.00 75 1014.1
20260506013015 20 230 0.0 0.0 0.00 0.00 0.00 73 1014.1
20260506012511 20 245 0.0 0.0 0.00 0.00 0.00 71 1014.1
20260506012009 20 194 1.6 1.6 0.00 0.00 0.00 73 1014.4
20260506011506 20 236 0.0 0.0 0.00 0.00 0.00 68 1014.1
20260506011002 20 327 0.0 1.6 0.00 0.00 0.00 70 1014.1
20260506010502 20 243 0.0 0.0 0.00 0.00 0.00 70 1013.7
20260506005957 20 183 1.6 1.6 0.00 0.00 0.00 69 1014.1
20260506005455 20 278 0.0 1.6 0.00 0.00 0.00 70 1014.1
20260506004950 20 210 1.6 1.6 0.00 0.00 0.00 70 1014.1
20260506004448 20 248 0.0 0.0 0.00 0.00 0.00 69 1014.1
20260506003944 20 210 1.6 1.6 0.00 0.00 0.00 71 1014.1
20260506003441 20 186 3.2 3.2 0.00 0.00 0.00 67 1014.4
20260506002937 20 218 1.6 1.6 0.00 0.00 0.00 70 1014.1
20260506002433 20 230 1.6 1.6 0.00 0.00 0.00 69 1014.1
20260506001929 20 220 1.6 1.6 0.00 0.00 0.00 67 1014.1
20260506001426 20 212 1.6 1.6 0.00 0.00 0.00 68 1014.1
20260506000923 20 168 3.2 3.2 0.00 0.00 0.00 67 1014.4
20260506000423 21 185 3.2 4.8 0.00 0.00 0.00 69 1014.1
20260505235917 20 179 3.2 3.2 0.00 0.00 0.00 66 1014.4
20260505235415 20 278 3.2 3.2 0.00 0.00 0.00 66 1014.4
20260505234912 20 239 1.6 1.6 0.00 0.00 0.00 67 1014.4
20260505234410 20 150 1.6 3.2 0.00 0.00 0.00 66 1014.4
20260505233906 20 197 0.0 1.6 0.00 0.00 0.00 66 1014.4
20260505233404 20 181 6.4 9.7 0.00 0.00 0.00 68 1014.8
20260505232901 20 178 3.2 4.8 0.00 0.00 0.00 70 1014.8
20260505232359 20 173 3.2 3.2 0.00 0.00 0.00 65 1014.4
20260505231855 20 242 1.6 3.2 0.00 0.00 0.00 68 1014.8
20260505231353 20 222 0.0 0.0 0.00 0.00 0.00 68 1014.8
20260505230851 20 236 1.6 3.2 0.00 0.00 0.00 69 1015.1
20260505230348 20 146 1.6 3.2 0.00 0.00 0.00 71 1014.8
20260505225844 20 197 4.8 4.8 0.00 0.00 0.00 69 1015.1
20260505225342 19 187 4.8 4.8 0.00 0.00 0.00 70 1015.1
20260505224837 20 140 4.8 4.8 0.00 0.00 0.00 70 1014.8
20260505224335 20 216 1.6 1.6 0.00 0.00 0.00 68 1015.1
20260505223832 19 235 1.6 1.6 0.00 0.00 0.00 70 1015.1
20260505223329 19 242 3.2 4.8 0.00 0.00 0.00 70 1015.1
20260505222824 19 188 12.9 14.5 0.00 0.00 0.00 70 1015.1